Flag for China Weather past 2 weeks in Hangzhou, Zhejiang, China

Now
70 °F

Clear.


Feels Like: 70 °F
Forecast: 61 / 78 °F
Wind: No wind

Location: Hangzhou Airport

Current Time: Oct 2, 2014 at 11:19:26 PM

Latest Report: Oct 2, 2014 at 10:30 PM


Visibility: 4 mi

Pressure: 29.95 "Hg

Humidity: 78%

Dew point: 63 °F

Location of HangzhouLocation

Historic Weather in Hangzhou — Graph

°F

Hangzhou temperature yesterday

Maximum temperature yesterday: 75 °F (at 1:00 PM)
Minimum temperature yesterday: 63 °F (at 2:00 AM)
Average temperature yesterday: 69 °F

Past Weeks' High & Low Weather Summary

 TemperatureHumidityPressure
High91 °F (Sep 29, 11:30 AM)89% (Sep 23, 4:00 AM)30.12 "Hg (Sep 23, 4:00 AM)
Low63 °F (Sep 19, 8:00 AM)44% (Oct 1, 2:00 PM)29.65 "Hg (Sep 23, 3:30 AM)
Average74 °F74%29.92 "Hg
* Reported Sep 17 10:00 PM — Oct 2 10:00 PM, Hangzhou, Weather by CustomWeather, © 2014

Note: Actual official high and low records may vary slightly from our data, if they occured in-between our weather recording intervals... More about our weather records

Advertising

Hangzhou weather history for previous 24 hours

 ConditionsComfort  
Time TempWeatherWind HumidityBarometerVisibility
10:00 PM
Oct 2
72 °FClear.1 mph73%29.95 "Hg5 mi
9:30 PM73 °FClear.1 mph69%29.95 "Hg5 mi
9:00 PM73 °FClear.1 mph69%29.95 "Hg10 mi
8:30 PM73 °FClear.1 mph69%29.92 "Hg10 mi
8:00 PM75 °FClear.1 mph65%29.92 "Hg10 mi
7:30 PM75 °FClear.1 mph65%29.92 "Hg10 mi
7:00 PM75 °FClear.1 mph61%29.92 "Hg10 mi
6:30 PM75 °FClear.3 mph61%29.89 "Hg10 mi
6:00 PM77 °FPassing clouds.3 mph57%29.89 "HgN/A
5:30 PM77 °FPassing clouds.3 mph54%29.89 "HgN/A
5:00 PM79 °FPassing clouds.6 mph51%29.86 "HgN/A
4:30 PM79 °FPartly sunny.6 mph51%29.86 "HgN/A
4:00 PM81 °FScattered clouds.6 mph48%29.86 "HgN/A
3:30 PM79 °FScattered clouds.3 mph54%29.86 "HgN/A
3:00 PM81 °FScattered clouds.6 mph48%29.86 "HgN/A
2:30 PM81 °FScattered clouds.8 mph48%29.86 "HgN/A
2:00 PM79 °FScattered clouds.6 mph54%29.86 "Hg5 mi
1:30 PM81 °FPassing clouds.6 mph51%29.86 "Hg5 mi
1:00 PM81 °FPassing clouds.6 mph48%29.86 "Hg5 mi
12:30 PM79 °FPassing clouds.6 mph54%29.89 "Hg5 mi
12:00 PM79 °FPassing clouds.8 mph54%29.89 "Hg5 mi
11:30 AM79 °FPassing clouds.3 mph54%29.89 "Hg4 mi
11:00 AM77 °FClear.8 mph54%29.92 "Hg4 mi
10:30 AM77 °FClear.6 mph54%29.92 "Hg4 mi
10:00 AM77 °FClear.6 mph54%29.95 "Hg4 mi
9:30 AM75 °FHaze.6 mph57%29.95 "Hg3 mi
9:00 AM72 °FScattered clouds.3 mph69%29.95 "Hg3 mi
8:30 AM70 °FHaze.3 mph73%29.95 "Hg3 mi
8:00 AM70 °FHaze.6 mph73%29.95 "Hg3 mi
7:30 AM68 °FFog.3 mph78%29.95 "Hg3 mi
7:00 AM68 °FFog.3 mph78%29.95 "Hg3 mi
6:30 AM64 °FFog.3 mph83%29.92 "Hg3 mi
6:00 AM64 °FFog.3 mph83%29.92 "Hg3 mi
5:30 AM64 °FClear.3 mph83%29.92 "Hg4 mi
5:00 AM66 °FClear.1 mph78%29.92 "Hg4 mi
4:30 AM64 °FClear.1 mph83%29.92 "Hg4 mi
4:00 AM64 °FClear.3 mph83%29.89 "Hg4 mi
3:30 AM64 °FClear.3 mph83%29.89 "Hg4 mi
3:00 AM64 °FClear.1 mph83%29.92 "Hg4 mi
2:30 AM66 °FClear.1 mph78%29.92 "Hg4 mi
2:00 AM66 °FClear.1 mph73%29.92 "Hg4 mi
1:30 AM66 °FClear.1 mph73%29.92 "Hg4 mi
1:00 AM66 °FClear.1 mph78%29.92 "Hg10 mi
12:30 AM66 °FClear.1 mph78%29.92 "Hg10 mi
12:00 AM68 °FClear.No wind69%29.95 "Hg10 mi
11:30 PM
Oct 1
68 °FClear.1 mph69%29.95 "Hg10 mi
11:00 PM68 °FClear.1 mph69%29.98 "Hg10 mi
Weather by CustomWeather, © 2014

See weather overviewHow to use our weather pages